[[{"header":{"parameterUnit":"m.s-1","parameterCategory":2,"la1":30.2991,"la2":30.254,"lo1":-89.0895,"lo2":-89.0444,"dy":0.0017,"dx":0.0017,"nx":28,"ny":28,"refTime":"2023-09-22T03:00:00:Z","depth":"0","parameterNumber":2,"parameterNumberName":"U-component_of_CURRENTS"},"data":[0,0,0,0,0,0,0,0,0,0,0,0,0,0,0,0,0,0,0,0,0,0,0,0,0,0,0,0,0,0,0,0,0,0,0,0,0,0,0,0,0,0,0,0,0,0,0,0,0,0,0,0,0,0,0,0,0,0,-0.2575,-0.2576,0,-0.2592,-0.2592,-0.2592,-0.2542,-0.2541,-0.254,-0.2539,-0.2496,-0.2496,-0.2496,0,0,0,0,0,0,0,0,0,0,0,0,0,-0.2466,-0.2469,-0.2575,-0.2576,-0.2576,-0.2592,-0.2592,-0.2592,-0.2542,-0.2541,-0.2539,-0.2538,-0.2496,-0.2496,-0.2496,0,0,0,0,0,0,0,0,0,0,0,0,0,-0.2498,-0.2469,-0.2575,-0.2556,-0.2555,-0.2592,-0.2592,-0.2591,-0.2543,-0.2541,-0.2539,-0.2537,-0.2496,-0.2496,-0.2496,-0.2531,0,0,-0.2496,-0.2496,0,0,0,0,0,0,0,0,-0.2496,-0.2502,-0.2558,-0.2558,-0.2556,-0.2566,-0.2538,-0.257,-0.2543,-0.2544,-0.2539,-0.2536,-0.2517,-0.2516,-0.2518,-0.2529,-0.2528,-0.2496,-0.2496,-0.2496,-0.2496,0,0,0,0,0,0,0,-0.2494,-0.2501,-0.2578,-0.2559,-0.2558,-0.2535,-0.2538,-0.2543,-0.2537,-0.2543,-0.2541,-0.2549,-0.2516,-0.2519,-0.2517,-0.2527,-0.2496,-0.2496,-0.2496,-0.2496,-0.2541,-0.2542,0,0,0,0,0,0,-0.2504,-0.2499,-0.2578,-0.2579,-0.2525,-0.2539,-0.2541,-0.2562,-0.2538,-0.2534,-0.255,-0.2546,-0.252,-0.2517,-0.2515,-0.2534,-0.2496,-0.2496,-0.2496,-0.254,-0.2541,-0.2543,0,0,0,0,0,0,-0.2502,-0.2511,-0.2577,-0.2541,-0.2548,-0.2543,-0.2566,-0.2563,-0.2567,-0.2544,-0.2538,-0.2557,-0.2518,-0.2515,-0.2522,-0.2533,-0.2496,-0.2496,-0.2538,-0.254,-0.2542,-0.2586,0,0,0,0,0,0,-0.2499,-0.2511,-0.2527,-0.2542,-0.2551,-0.2606,-0.2568,-0.2565,-0.2576,-0.2571,-0.2549,-0.2542,-0.2516,-0.2523,-0.2522,-0.2532,-0.2495,-0.2537,-0.2539,-0.2541,-0.2583,-0.2589,-0.2594,0,0,0,0,0,-0.2495,-0.2532,-0.2528,-0.2537,-0.2575,-0.2608,-0.261,-0.2597,-0.2579,-0.2591,-0.2571,-0.2543,-0.2536,-0.2524,-0.2523,-0.2533,-0.2536,-0.2539,-0.2541,-0.258,-0.2588,-0.2594,0,0,0,0,0,0,-0.2497,-0.2532,-0.2527,-0.2573,-0.259,-0.2601,-0.2616,-0.2609,-0.2605,-0.2595,-0.2564,-0.2559,-0.2565,-0.2554,-0.2541,-0.2554,-0.253,-0.2533,-0.256,-0.2567,-0.2572,-0.257,-0.2495,0,0,0,0,0,-0.2507,-0.2539,-0.2564,-0.2599,-0.2612,-0.2616,-0.2627,-0.2621,-0.2623,-0.2619,-0.2601,-0.2585,-0.258,-0.2576,-0.2569,-0.2586,-0.257,-0.2592,-0.2597,-0.2602,-0.2601,-0.2593,-0.2597,-0.2552,-0.2552,-0.2552,0,0,-0.2517,-0.2541,-0.2558,-0.2601,-0.2612,-0.2633,-0.2617,-0.2644,-0.265,-0.2617,-0.2619,-0.2607,-0.259,-0.2598,-0.26,-0.2587,-0.261,-0.2606,-0.261,-0.2606,-0.2596,-0.26,-0.2604,-0.2554,-0.2553,-0.2553,0,0,-0.2543,-0.2577,-0.26,-0.2622,-0.2648,-0.2656,-0.2668,-0.2682,-0.2678,-0.269,-0.2661,-0.2661,-0.2655,-0.2642,-0.2635,-0.2675,-0.2641,-0.2673,-0.2697,-0.269,-0.2693,-0.2695,-0.2689,-0.2691,-0.2675,-0.2675,-0.2675,0,-0.2549,-0.2581,-0.2613,-0.2638,-0.2652,-0.2668,-0.2686,-0.2699,-0.2708,-0.2709,-0.2694,-0.2687,-0.2674,-0.2679,-0.2687,-0.2686,-0.2675,-0.267,-0.2696,-0.2698,-0.2699,-0.2693,-0.2694,-0.2677,-0.2677,-0.2677,-0.2676,0,-0.2576,-0.2605,-0.2627,-0.2658,-0.2685,-0.2709,-0.2732,-0.275,-0.2747,-0.2747,-0.2755,-0.2743,-0.2732,-0.2735,-0.272,-0.2732,-0.2718,-0.2703,-0.2674,-0.2706,-0.2698,-0.2698,-0.2681,-0.268,-0.2679,-0.2678,0,0,-0.2568,-0.2631,-0.2632,-0.2646,-0.2693,-0.2716,-0.2748,-0.2773,-0.2787,-0.2792,-0.28,-0.2797,-0.2787,-0.2779,-0.2766,-0.2764,-0.2772,-0.274,-0.2739,-0.2728,-0.2754,-0.2686,-0.268,-0.2757,-0.2757,-0.2757,-0.2745,0,-0.2565,-0.2605,-0.264,-0.2674,-0.2694,-0.2732,-0.2762,-0.279,-0.2806,-0.2824,-0.2821,-0.2822,-0.2805,-0.2799,-0.2797,-0.2779,-0.2773,-0.2776,-0.273,-0.2729,-0.2659,-0.2678,-0.2562,-0.2536,-0.2745,-0.2745,-0.2745,0,-0.2547,-0.2586,-0.2613,-0.2675,-0.2688,-0.2712,-0.276,-0.2789,-0.283,-0.2843,-0.2852,-0.285,-0.2854,-0.2831,-0.2813,-0.2814,-0.2786,-0.2771,-0.2769,-0.2688,-0.2661,-0.2537,-0.2528,-0.2505,-0.2746,-0.2746,-0.2746,0,-0.2487,-0.2553,-0.2571,-0.2592,-0.2673,-0.2691,-0.2727,-0.2779,-0.2806,-0.2845,-0.2864,-0.2871,-0.2867,-0.2846,-0.2812,-0.2812,-0.2786,-0.2781,-0.2696,-0.2691,-0.2572,-0.2556,-0.2526,-0.2761,-0.2761,-0.2761,-0.2761,0,-0.2452,-0.2465,-0.2544,-0.2559,-0.2588,-0.2655,-0.2686,-0.2729,-0.279,-0.281,-0.2856,-0.2865,-0.2868,-0.2854,-0.2823,-0.2755,-0.279,-0.2699,-0.268,-0.2586,-0.2572,-0.253,-0.2547,-0.276,-0.276,-0.276,-0.276,0,-0.2366,-0.2419,-0.2446,-0.2532,-0.2555,-0.2569,-0.2653,-0.2675,-0.2751,-0.278,-0.279,-0.2855,-0.2838,-0.2831,-0.2799,-0.2755,-0.2654,-0.267,-0.256,-0.2528,-0.2423,-0.2447,-0.2391,-0.2326,-0.2582,-0.258,-0.2579,0,-0.2317,-0.2325,-0.2403,-0.2412,-0.2445,-0.2489,-0.2514,-0.2621,-0.265,-0.2755,-0.2754,-0.2784,-0.2769,-0.2722,-0.2652,-0.2586,-0.2575,-0.2445,-0.2422,-0.2398,-0.2413,-0.2428,-0.2378,-0.2292,-0.2288,-0.2285,-0.2282,0,-0.2221,-0.2246,-0.2267,-0.2303,-0.2327,-0.2371,-0.242,-0.2452,-0.2566,-0.2612,-0.2656,-0.2664,-0.2638,-0.253,-0.246,-0.2401,-0.2378,-0.2379,-0.2378,-0.22,-0.219,-0.2124,-0.2335,-0.2255,-0.2258,-0.226,-0.2261,-0.2262,-0.2116,-0.2109,-0.2137,-0.2157,-0.2191,-0.2221,-0.2209,-0.2286,-0.233,-0.236,-0.2469,-0.2447,-0.2415,-0.2303,-0.2251,-0.212,-0.2181,-0.2053,-0.2091,-0.2114,-0.2024,-0.2177,-0.2062,-0.2064,-0.2065,-0.2066,-0.2067,0,-0.1977,-0.1982,-0.1991,-0.2012,-0.1997,-0.207,-0.211,-0.2078,-0.2073,-0.2151,-0.2164,-0.2167,-0.2063,-0.205,-0.1944,-0.1859,-0.1816,-0.1818,-0.1814,-0.1782,-0.1921,-0.1879,-0.169,-0.169,-0.169,-0.169,-0.169,-0.169,-0.1896,-0.1848,-0.1865,-0.1799,-0.1813,-0.1749,-0.1739,-0.172,-0.1745,-0.1732,-0.1765,-0.1841,-0.1853,-0.1952,-0.183,-0.1738,-0.1702,-0.1637,-0.1681,-0.1793,-0.1818,-0.1843,-0.1806,-0.1604,-0.1604,-0.1459,-0.1458,-0.1458]},{"header":{"parameterUnit":"m.s-1","parameterCategory":2,"la1":30.2991,"la2":30.254,"lo1":-89.0895,"lo2":-89.0444,"dy":0.0017,"dx":0.0017,"nx":28,"ny":28,"refTime":"2023-09-22T03:00:00:Z","depth":"0","parameterNumber":3,"parameterNumberName":"V-component_of_CURRENTS"},"data":[0,0,0,0,0,0,0,0,0,0,0,0,0,0,0,0,0,0,0,0,0,0,0,0,0,0,0,0,0,0,0,0,0,0,0,0,0,0,0,0,0,0,0,0,0,0,0,0,0,0,0,0,0,0,0,0,0,0,-0.0335,-0.0334,0,-0.0237,-0.0236,-0.0235,-0.0173,-0.0173,-0.0173,-0.0173,-0.0018,-0.0014,-0.001,0,0,0,0,0,0,0,0,0,0,0,0,0,-0.0406,-0.0405,-0.0335,-0.0334,-0.0333,-0.0237,-0.0236,-0.0235,-0.0173,-0.0173,-0.0173,-0.0172,-0.0019,-0.0014,-0.001,0,0,0,0,0,0,0,0,0,0,0,0,0,-0.0348,-0.0405,-0.0335,-0.0291,-0.0287,-0.0238,-0.0236,-0.0234,-0.0174,-0.0173,-0.0173,-0.0172,-0.002,-0.0015,-0.0009,0.0018,0,0,0.0009,0.0011,0,0,0,0,0,0,0,0,-0.0351,-0.0345,-0.0299,-0.0294,-0.0289,-0.0218,-0.0204,-0.0147,-0.0174,-0.0216,-0.0173,-0.0172,-0.008,-0.0069,-0.0052,0.0026,0.0032,0.0009,0.0013,0.0015,0.0017,0,0,0,0,0,0,0,-0.0356,-0.0349,-0.0296,-0.0298,-0.0292,-0.0255,-0.0247,-0.0193,-0.015,-0.0212,-0.0207,-0.0198,-0.0077,-0.0057,-0.0047,0.0035,0.0009,0.0014,0.0018,0.002,0.0157,0.0157,0,0,0,0,0,0,-0.0373,-0.0353,-0.0299,-0.0293,-0.032,-0.0254,-0.0245,-0.024,-0.0151,-0.0138,-0.0198,-0.0195,-0.0068,-0.0054,-0.0042,0.0001,0.0015,0.0021,0.0024,0.0157,0.0157,0.0157,0,0,0,0,0,0,-0.0375,-0.0369,-0.0303,-0.0321,-0.031,-0.0254,-0.0249,-0.0239,-0.0219,-0.0142,-0.0127,-0.019,-0.0067,-0.005,0.0005,0.0007,0.0023,0.0028,0.0157,0.0157,0.0157,0.0083,0,0,0,0,0,0,-0.0377,-0.0371,-0.0375,-0.0322,-0.031,-0.028,-0.0249,-0.0237,-0.0214,-0.021,-0.013,-0.0115,-0.0065,-0.0004,0.001,0.0015,0.0033,0.0156,0.0157,0.0157,0.0085,0.008,0.0076,0,0,0,0,0,-0.038,-0.0391,-0.0376,-0.037,-0.0317,-0.0281,-0.0271,-0.0228,-0.0215,-0.0209,-0.0155,-0.0117,0.0008,0.0,0.0018,0.0024,0.0156,0.0157,0.0157,0.0087,0.0081,0.0076,0,0,0,0,0,0,-0.0427,-0.0384,-0.0367,-0.0365,-0.0328,-0.0271,-0.0264,-0.0235,-0.0189,-0.0185,-0.0113,-0.0094,-0.0047,-0.0001,-0.0011,0.0065,0.0088,0.0092,0.0028,0.0024,0.002,0.0004,0.0038,0,0,0,0,0,-0.044,-0.0437,-0.0386,-0.0387,-0.0371,-0.032,-0.0301,-0.0272,-0.0224,-0.0203,-0.0146,-0.0085,-0.0032,0.0002,0.0055,0.0099,0.0143,0.0115,0.011,0.0106,0.0106,0.0168,0.0168,0.0158,0.0158,0.0158,0,0,-0.0461,-0.0436,-0.0435,-0.0396,-0.0366,-0.0347,-0.0307,-0.0285,-0.0266,-0.0193,-0.0152,-0.0099,-0.0025,0.0022,0.0048,0.0062,0.0132,0.0107,0.0103,0.0104,0.0168,0.0169,0.017,0.0159,0.0159,0.0159,0,0,-0.0495,-0.0477,-0.048,-0.0452,-0.0411,-0.0376,-0.0373,-0.0316,-0.0289,-0.0244,-0.0189,-0.0137,-0.0053,0.0001,0.0039,0.0045,0.0103,0.0061,0.0034,0.0093,0.0094,0.0096,0.0147,0.0154,0.0063,0.0063,0.0063,0,-0.0523,-0.0516,-0.0476,-0.0467,-0.045,-0.0394,-0.039,-0.0352,-0.0284,-0.026,-0.0242,-0.012,-0.0063,0.0003,0.0003,0.0035,0.0075,0.0043,0.0086,0.0089,0.0092,0.0144,0.0152,0.0059,0.006,0.006,0.006,0,-0.0548,-0.0543,-0.0544,-0.0514,-0.0491,-0.0481,-0.0424,-0.0397,-0.0359,-0.0313,-0.0248,-0.0167,-0.0095,-0.0069,-0.003,0.0022,0.0045,0.0067,0.0094,0.0088,0.0144,0.0154,0.0054,0.0056,0.0057,0.0057,0,0,-0.0613,-0.0571,-0.0573,-0.057,-0.0517,-0.0505,-0.0472,-0.0425,-0.0405,-0.0335,-0.0297,-0.0207,-0.0163,-0.0118,-0.0057,-0.0003,0.0048,0.0034,0.0039,0.0075,0.0175,0.022,0.0236,0.0076,0.0078,0.0079,0.0203,0,-0.0648,-0.065,-0.0613,-0.0618,-0.0616,-0.0557,-0.0533,-0.0482,-0.0427,-0.0375,-0.0286,-0.0228,-0.018,-0.0148,-0.0087,0.0019,0.0072,0.0012,0.0185,0.019,0.0222,0.0248,0.0277,0.0393,0.0213,0.0215,0.0216,0,-0.0681,-0.0682,-0.0691,-0.0671,-0.0665,-0.0655,-0.0612,-0.0583,-0.0492,-0.0447,-0.037,-0.0294,-0.0196,-0.0163,0.001,-0.0031,0.006,0.0139,0.0146,0.0222,0.0254,0.0374,0.0419,0.0559,0.0233,0.0231,0.023,0,-0.0747,-0.0737,-0.075,-0.0742,-0.0705,-0.0701,-0.0681,-0.0608,-0.0585,-0.0491,-0.0459,-0.0329,-0.0259,-0.013,0.0036,0.0024,0.0226,0.0233,0.0359,0.0363,0.0441,0.045,0.0636,0.0346,0.0345,0.0345,0.0345,0,-0.0794,-0.0807,-0.0785,-0.0795,-0.082,-0.0768,-0.0769,-0.0727,-0.0658,-0.0629,-0.0506,-0.0444,-0.0249,-0.0106,0.003,0.0236,0.0227,0.0365,0.0405,0.0416,0.042,0.0588,0.0638,0.035,0.0349,0.0348,0.0347,0,-0.0851,-0.0833,-0.0856,-0.0845,-0.0848,-0.0868,-0.0846,-0.0839,-0.0764,-0.072,-0.0693,-0.0518,-0.0321,-0.012,0.0113,0.0235,0.0517,0.0488,0.0485,0.0523,0.0759,0.0802,0.1028,0.1118,0.0647,0.0649,0.0651,0,-0.0875,-0.0891,-0.0912,-0.0938,-0.0936,-0.0952,-0.0961,-0.0905,-0.0887,-0.0761,-0.074,-0.0541,-0.0378,-0.001,0.0249,0.0517,0.0617,0.0684,0.0669,0.0792,0.087,0.0895,0.0955,0.0743,0.0745,0.0747,0.0748,0,-0.0927,-0.0931,-0.0951,-0.1013,-0.1041,-0.1068,-0.107,-0.1073,-0.099,-0.092,-0.0785,-0.0642,-0.027,0.0079,0.0431,0.0579,0.0795,0.073,0.0871,0.0976,0.1005,0.1103,0.063,0.0765,0.0763,0.0762,0.0761,0.076,-0.0962,-0.0996,-0.1026,-0.1081,-0.1124,-0.1164,-0.1176,-0.1145,-0.1103,-0.097,-0.0823,-0.0569,-0.0068,0.0451,0.0633,0.1003,0.0954,0.1095,0.1141,0.1159,0.1239,0.0797,0.0964,0.0964,0.0963,0.0963,0.0963,0,-0.0997,-0.1032,-0.1093,-0.1155,-0.1212,-0.1213,-0.1229,-0.1201,-0.1137,-0.0968,-0.0787,-0.0238,0.0249,0.0687,0.1228,0.1412,0.1445,0.1484,0.1533,0.1579,0.1211,0.1208,0.1419,0.1419,0.1419,0.1419,0.1419,0.1418,-0.1017,-0.1072,-0.1105,-0.1207,-0.1252,-0.1288,-0.129,-0.1223,-0.1095,-0.0787,-0.0476,-0.021,0.0415,0.1293,0.1772,0.1795,0.1951,0.1915,0.2009,0.175,0.1717,0.1685,0.1697,0.2007,0.2007,0.2364,0.2367,0.237]}],[{"header":{"parameterUnit":"m.s-1","parameterCategory":2,"la1":30.2991,"la2":30.254,"lo1":-89.0895,"lo2":-89.0444,"dy":0.0017,"dx":0.0017,"nx":28,"ny":28,"refTime":"2023-09-22T03:00:00:Z","depth":"2","parameterNumber":2,"parameterNumberName":"U-component_of_CURRENTS"},"data":[0,0,0,0,0,0,0,0,0,0,0,0,0,0,0,0,0,0,0,0,0,0,0,0,0,0,0,0,0,0,0,0,0,0,0,0,0,0,0,0,0,0,0,0,0,0,0,0,0,0,0,0,0,0,0,0,0,0,-0.2245,-0.2245,0,-0.2265,-0.2265,-0.2265,-0.2229,-0.2228,-0.2227,-0.2226,-0.2197,-0.2198,-0.2198,0,0,0,0,0,0,0,0,0,0,0,0,0,-0.2151,-0.2153,-0.2245,-0.2245,-0.2246,-0.2265,-0.2265,-0.2265,-0.2229,-0.2228,-0.2227,-0.2226,-0.2197,-0.2197,-0.2198,0,0,0,0,0,0,0,0,0,0,0,0,0,-0.2181,-0.2153,-0.2245,-0.2232,-0.2232,-0.2265,-0.2265,-0.2265,-0.2229,-0.2228,-0.2226,-0.2225,-0.2197,-0.2197,-0.2198,-0.2227,0,0,-0.2198,-0.2198,0,0,0,0,0,0,0,0,-0.2179,-0.2184,-0.2234,-0.2233,-0.2233,-0.2245,-0.2221,-0.2251,-0.223,-0.2227,-0.2226,-0.2224,-0.2212,-0.2211,-0.2214,-0.2226,-0.2224,-0.2198,-0.2198,-0.2198,-0.2198,0,0,0,0,0,0,0,-0.2177,-0.2183,-0.225,-0.2234,-0.2234,-0.2218,-0.222,-0.2226,-0.2224,-0.2227,-0.2225,-0.2233,-0.2211,-0.2214,-0.2213,-0.2224,-0.2198,-0.2198,-0.2198,-0.2198,-0.2246,-0.2247,0,0,0,0,0,0,-0.2184,-0.2181,-0.2249,-0.2251,-0.2205,-0.2221,-0.2223,-0.224,-0.2225,-0.2223,-0.2234,-0.2231,-0.2215,-0.2213,-0.2212,-0.2237,-0.2198,-0.2198,-0.2199,-0.2245,-0.2246,-0.2248,0,0,0,0,0,0,-0.2182,-0.219,-0.2248,-0.2218,-0.2224,-0.2224,-0.2243,-0.2242,-0.2248,-0.2231,-0.2227,-0.2243,-0.2213,-0.2212,-0.2222,-0.2236,-0.2199,-0.2199,-0.2244,-0.2245,-0.2247,-0.2293,0,0,0,0,0,0,-0.2179,-0.2189,-0.2205,-0.2219,-0.2226,-0.2275,-0.2245,-0.2243,-0.2256,-0.2253,-0.2238,-0.2233,-0.2212,-0.2222,-0.2223,-0.2235,-0.2199,-0.2242,-0.2244,-0.2246,-0.229,-0.2296,-0.2301,0,0,0,0,0,-0.2176,-0.2206,-0.2205,-0.2214,-0.2247,-0.2277,-0.2279,-0.2271,-0.2258,-0.227,-0.2257,-0.2234,-0.2236,-0.2224,-0.2224,-0.2237,-0.2241,-0.2244,-0.2246,-0.2287,-0.2295,-0.2301,0,0,0,0,0,0,-0.2175,-0.2206,-0.2205,-0.2243,-0.2261,-0.2272,-0.2286,-0.2283,-0.2284,-0.2277,-0.2253,-0.2249,-0.2261,-0.2251,-0.2238,-0.2258,-0.2234,-0.2236,-0.2265,-0.2271,-0.2277,-0.2275,-0.2199,0,0,0,0,0,-0.2184,-0.2211,-0.2235,-0.2265,-0.2278,-0.2284,-0.2296,-0.2293,-0.2297,-0.2296,-0.2286,-0.2276,-0.2274,-0.2274,-0.227,-0.2289,-0.2273,-0.2297,-0.2303,-0.2307,-0.2307,-0.23,-0.2304,-0.2256,-0.2256,-0.2256,0,0,-0.2191,-0.2213,-0.2227,-0.2266,-0.2278,-0.2299,-0.2287,-0.2312,-0.2322,-0.2294,-0.2305,-0.2298,-0.2285,-0.2297,-0.2301,-0.2288,-0.2316,-0.2311,-0.2315,-0.2311,-0.2303,-0.2307,-0.2311,-0.2258,-0.2258,-0.2257,0,0,-0.2211,-0.224,-0.2262,-0.2283,-0.2311,-0.2319,-0.2331,-0.2348,-0.2349,-0.2367,-0.2344,-0.2348,-0.235,-0.2341,-0.2336,-0.2377,-0.2346,-0.2376,-0.2402,-0.2396,-0.24,-0.2403,-0.2397,-0.2399,-0.2379,-0.2379,-0.2379,0,-0.2215,-0.2245,-0.2273,-0.2298,-0.2314,-0.233,-0.235,-0.2365,-0.2379,-0.2384,-0.2374,-0.2378,-0.2369,-0.2379,-0.2389,-0.2388,-0.2378,-0.2376,-0.2403,-0.2405,-0.2407,-0.24,-0.2401,-0.2381,-0.2381,-0.2381,-0.2381,0,-0.224,-0.2267,-0.2287,-0.232,-0.2345,-0.2369,-0.2395,-0.2416,-0.242,-0.2425,-0.244,-0.2433,-0.2429,-0.2434,-0.2422,-0.2438,-0.2424,-0.241,-0.2382,-0.2414,-0.2405,-0.2406,-0.2385,-0.2384,-0.2383,-0.2383,0,0,-0.2228,-0.229,-0.2292,-0.2308,-0.2355,-0.2377,-0.2413,-0.2442,-0.246,-0.2472,-0.2488,-0.2492,-0.2485,-0.248,-0.247,-0.247,-0.2481,-0.2449,-0.2448,-0.2438,-0.2468,-0.2396,-0.239,-0.2469,-0.2469,-0.2469,-0.2458,0,-0.2228,-0.227,-0.2304,-0.2339,-0.236,-0.2399,-0.2431,-0.2463,-0.2484,-0.2508,-0.251,-0.2519,-0.2504,-0.2503,-0.2503,-0.2488,-0.2484,-0.2486,-0.2442,-0.2441,-0.2369,-0.2389,-0.2208,-0.2176,-0.2458,-0.2458,-0.2458,0,-0.2218,-0.2253,-0.2285,-0.2345,-0.2359,-0.2385,-0.2437,-0.2467,-0.2513,-0.2531,-0.2546,-0.2548,-0.2557,-0.2536,-0.2523,-0.2524,-0.2498,-0.2485,-0.2484,-0.2398,-0.237,-0.2189,-0.2167,-0.2459,-0.2459,-0.2459,-0.2459,0,-0.2165,-0.2229,-0.2252,-0.2272,-0.2349,-0.2371,-0.2407,-0.2463,-0.2491,-0.2537,-0.2559,-0.2573,-0.2573,-0.2555,-0.2525,-0.2526,-0.2503,-0.2498,-0.241,-0.2405,-0.2232,-0.221,-0.248,-0.248,-0.248,-0.248,-0.248,0,-0.2137,-0.2152,-0.2229,-0.2244,-0.2276,-0.234,-0.2376,-0.242,-0.2482,-0.2504,-0.2555,-0.2566,-0.2576,-0.2565,-0.2537,-0.247,-0.2507,-0.2413,-0.2395,-0.2244,-0.2225,-0.2452,-0.2449,-0.2479,-0.2479,-0.2479,-0.2479,0,-0.2062,-0.2113,-0.2142,-0.2225,-0.2247,-0.2264,-0.2346,-0.237,-0.2447,-0.2478,-0.2491,-0.2557,-0.2542,-0.254,-0.2512,-0.2469,-0.2423,-0.2386,-0.2211,-0.2171,-0.2331,-0.2331,-0.2299,-0.2296,-0.2294,-0.2292,-0.229,0,-0.2021,-0.2031,-0.2106,-0.2116,-0.2148,-0.2193,-0.2218,-0.2321,-0.2349,-0.2452,-0.2451,-0.2484,-0.2465,-0.2422,-0.2353,-0.2288,-0.2354,-0.209,-0.2057,-0.2326,-0.2312,-0.2315,-0.2318,-0.1852,-0.1847,-0.1843,-0.1839,0,-0.1937,-0.1963,-0.1984,-0.2017,-0.2041,-0.2081,-0.2128,-0.2157,-0.2265,-0.2305,-0.2342,-0.2347,-0.2321,-0.2177,-0.2111,-0.2048,-0.2091,-0.2004,-0.2315,-0.193,-0.1904,-0.1891,-0.1908,-0.1803,-0.1806,-0.1809,-0.1811,-0.1812,-0.1846,-0.1842,-0.187,-0.1888,-0.1919,-0.194,-0.1924,-0.199,-0.2023,-0.2041,-0.2143,-0.209,-0.2086,-0.1893,-0.18,-0.1727,-0.1867,-0.178,-0.1793,-0.181,-0.1764,-0.1737,-0.1595,-0.1598,-0.16,-0.1602,-0.1603,0,-0.1724,-0.1732,-0.174,-0.1756,-0.1737,-0.1803,-0.1831,-0.179,-0.1769,-0.1818,-0.1816,-0.1656,-0.1571,-0.1575,-0.1408,-0.1381,-0.1367,-0.1323,-0.1302,-0.1339,-0.1371,-0.1304,-0.1012,-0.1011,-0.1009,-0.1008,0,0,-0.1651,-0.1611,-0.1625,-0.1558,-0.1568,-0.1498,-0.1481,-0.1443,-0.1442,-0.1381,-0.1357,-0.1468,-0.1526,-0.1272,-0.121,-0.1083,-0.1199,-0.1029,-0.1501,-0.1511,-0.1542,-0.1629,-0.1565,0,0,0,0,0]},{"header":{"parameterUnit":"m.s-1","parameterCategory":2,"la1":30.2991,"la2":30.254,"lo1":-89.0895,"lo2":-89.0444,"dy":0.0017,"dx":0.0017,"nx":28,"ny":28,"refTime":"2023-09-22T03:00:00:Z","depth":"2","parameterNumber":3,"parameterNumberName":"V-component_of_CURRENTS"},"data":[0,0,0,0,0,0,0,0,0,0,0,0,0,0,0,0,0,0,0,0,0,0,0,0,0,0,0,0,0,0,0,0,0,0,0,0,0,0,0,0,0,0,0,0,0,0,0,0,0,0,0,0,0,0,0,0,0,0,-0.0275,-0.0274,0,-0.0188,-0.0187,-0.0186,-0.0131,-0.0131,-0.0131,-0.0131,0.001,0.0013,0.0017,0,0,0,0,0,0,0,0,0,0,0,0,0,-0.0338,-0.0338,-0.0275,-0.0274,-0.0273,-0.0188,-0.0187,-0.0186,-0.0131,-0.0131,-0.0131,-0.0131,0.0009,0.0013,0.0017,0,0,0,0,0,0,0,0,0,0,0,0,0,-0.0287,-0.0337,-0.0275,-0.0236,-0.0232,-0.0188,-0.0187,-0.0185,-0.0132,-0.0131,-0.0131,-0.013,0.0007,0.0012,0.0018,0.0043,0,0,0.0034,0.0036,0,0,0,0,0,0,0,0,-0.029,-0.0284,-0.0243,-0.0239,-0.0234,-0.0171,-0.0158,-0.0107,-0.0132,-0.0169,-0.0131,-0.013,-0.0046,-0.0037,-0.0021,0.0049,0.0055,0.0034,0.0037,0.004,0.0041,0,0,0,0,0,0,0,-0.0293,-0.0287,-0.024,-0.0242,-0.0236,-0.0204,-0.0196,-0.0148,-0.0109,-0.0166,-0.0162,-0.0153,-0.0043,-0.0026,-0.0017,0.0057,0.0034,0.0039,0.0042,0.0044,0.0169,0.017,0,0,0,0,0,0,-0.0309,-0.0291,-0.0243,-0.0238,-0.0262,-0.0203,-0.0195,-0.0191,-0.0111,-0.0099,-0.0153,-0.0151,-0.0035,-0.0023,-0.0012,0.0028,0.004,0.0044,0.0048,0.0169,0.0169,0.017,0,0,0,0,0,0,-0.031,-0.0305,-0.0246,-0.0262,-0.0253,-0.0203,-0.0198,-0.0189,-0.0173,-0.0102,-0.0089,-0.0147,-0.0035,-0.0019,0.003,0.0034,0.0047,0.0052,0.0169,0.0169,0.017,0.0105,0,0,0,0,0,0,-0.0313,-0.0307,-0.0311,-0.0264,-0.0252,-0.0227,-0.0199,-0.0188,-0.0168,-0.0164,-0.0092,-0.0078,-0.0033,0.0022,0.0035,0.0041,0.0056,0.0169,0.0169,0.0169,0.0107,0.0103,0.0099,0,0,0,0,0,-0.0315,-0.0325,-0.0312,-0.0306,-0.026,-0.0227,-0.0218,-0.0181,-0.0169,-0.0164,-0.0115,-0.0081,0.0034,0.0026,0.0042,0.005,0.0169,0.0169,0.0169,0.0108,0.0104,0.01,0,0,0,0,0,0,-0.0358,-0.0319,-0.0304,-0.0302,-0.027,-0.0218,-0.0213,-0.0187,-0.0145,-0.0142,-0.0077,-0.006,-0.0016,0.0025,0.0015,0.0087,0.0106,0.011,0.0054,0.0051,0.0047,0.0032,0.006,0,0,0,0,0,-0.037,-0.0367,-0.0322,-0.0323,-0.0309,-0.0263,-0.0246,-0.0221,-0.0177,-0.0159,-0.0107,-0.0051,-0.0002,0.0029,0.0077,0.0118,0.0158,0.0133,0.013,0.0126,0.0125,0.0184,0.0185,0.0171,0.0171,0.0171,0,0,-0.0389,-0.0367,-0.0365,-0.0332,-0.0305,-0.0287,-0.0252,-0.0233,-0.0215,-0.0149,-0.0112,-0.0064,0.0004,0.0048,0.0072,0.0084,0.015,0.0127,0.0123,0.0124,0.0185,0.0186,0.0187,0.0171,0.0171,0.0171,0,0,-0.0419,-0.0404,-0.0407,-0.0382,-0.0346,-0.0314,-0.0312,-0.0261,-0.0236,-0.0196,-0.0145,-0.0096,-0.0021,0.003,0.0066,0.0072,0.0125,0.0087,0.0064,0.0121,0.0122,0.0124,0.0168,0.0174,0.009,0.009,0.009,0,-0.0445,-0.0439,-0.0403,-0.0395,-0.0381,-0.0331,-0.0327,-0.0292,-0.0231,-0.0209,-0.0194,-0.0081,-0.0028,0.0035,0.0036,0.0064,0.01,0.0072,0.0115,0.0118,0.0121,0.0165,0.0173,0.0087,0.0087,0.0087,0.0088,0,-0.0468,-0.0464,-0.0465,-0.0438,-0.0417,-0.0409,-0.0357,-0.0332,-0.0298,-0.0256,-0.0196,-0.0121,-0.0054,-0.0029,0.0007,0.0057,0.0075,0.0097,0.0121,0.0118,0.0165,0.0175,0.0082,0.0083,0.0084,0.0085,0,0,-0.0527,-0.049,-0.0492,-0.0488,-0.0441,-0.043,-0.04,-0.0356,-0.0339,-0.0273,-0.0239,-0.0153,-0.0114,-0.0071,-0.0015,0.0037,0.0085,0.007,0.0075,0.0104,0.0202,0.0232,0.0245,0.0114,0.0115,0.0116,0.0223,0,-0.0559,-0.0562,-0.0527,-0.0532,-0.053,-0.0477,-0.0455,-0.0408,-0.0359,-0.0311,-0.0227,-0.0174,-0.0127,-0.0099,-0.0039,0.0058,0.0108,0.0053,0.0209,0.0213,0.0233,0.0256,0.0224,0.0318,0.0232,0.0234,0.0235,0,-0.059,-0.059,-0.0599,-0.0581,-0.0575,-0.0566,-0.0528,-0.0502,-0.0418,-0.0378,-0.0305,-0.0236,-0.0142,-0.0111,0.0051,0.0014,0.0097,0.0169,0.0176,0.0234,0.0261,0.0311,0.0339,0.0251,0.025,0.0249,0.0248,0,-0.0651,-0.0641,-0.0654,-0.0646,-0.0613,-0.0609,-0.0592,-0.0526,-0.0506,-0.042,-0.0391,-0.0269,-0.0207,-0.0083,0.0069,0.0061,0.0244,0.0255,0.036,0.0363,0.0382,0.0385,0.036,0.036,0.036,0.036,0.0359,0,-0.0694,-0.0706,-0.0686,-0.0695,-0.0719,-0.0672,-0.0675,-0.0637,-0.0575,-0.055,-0.0436,-0.0381,-0.0198,-0.0068,0.0062,0.0246,0.0244,0.0364,0.0399,0.0358,0.0357,0.0337,0.0333,0.0364,0.0363,0.0362,0.0361,0,-0.0748,-0.0731,-0.0752,-0.0742,-0.0746,-0.0764,-0.0747,-0.0742,-0.0675,-0.0637,-0.0614,-0.0456,-0.0279,-0.0092,0.0124,0.0237,0.0407,0.0468,0.0403,0.0429,0.0486,0.0477,0.0597,0.0599,0.0601,0.0602,0.0603,0,-0.0771,-0.0786,-0.0804,-0.0829,-0.0827,-0.0844,-0.0854,-0.0804,-0.0789,-0.0679,-0.0662,-0.0486,-0.0342,-0.001,0.0221,0.0466,0.0461,0.0565,0.0548,0.0491,0.0514,0.0502,0.0491,0.0545,0.0546,0.0546,0.0547,0,-0.0821,-0.0824,-0.0842,-0.0898,-0.0926,-0.0952,-0.0956,-0.096,-0.0887,-0.0827,-0.0709,-0.0584,-0.0261,0.0023,0.0336,0.0466,0.0526,0.0584,0.0563,0.0486,0.0451,0.0469,0.0459,0.0551,0.0551,0.0551,0.055,0.055,-0.0856,-0.0887,-0.0913,-0.0964,-0.1004,-0.1041,-0.1053,-0.1027,-0.0992,-0.0875,-0.0751,-0.0533,-0.0259,0.0195,0.0416,0.0607,0.0602,0.0647,0.0642,0.0638,0.0609,0.0578,0.0697,0.0697,0.0697,0.0698,0.0698,0,-0.0892,-0.0924,-0.0978,-0.1034,-0.1085,-0.1088,-0.1102,-0.1077,-0.1022,-0.0879,-0.0724,-0.0418,-0.0092,0.0181,0.05,0.0693,0.0663,0.0708,0.0639,0.0633,0.0628,0.0596,0.0682,0.0683,0.0683,0.0684,0,0,-0.0912,-0.0963,-0.0991,-0.1083,-0.1125,-0.1159,-0.1161,-0.1098,-0.0987,-0.0832,-0.0662,-0.0418,-0.0079,0.0147,0.0389,0.0551,0.0535,0.0552,0.0544,0.0429,0.0422,0.0574,0.0516,0,0,0,0,0]}],[{"header":{"parameterUnit":"m.s-1","parameterCategory":2,"la1":30.2991,"la2":30.254,"lo1":-89.0895,"lo2":-89.0444,"dy":0.0017,"dx":0.0017,"nx":28,"ny":28,"refTime":"2023-09-22T03:00:00:Z","depth":"4","parameterNumber":2,"parameterNumberName":"U-component_of_CURRENTS"},"data":[0,0,0,0,0,0,0,0,0,0,0,0,0,0,0,0,0,0,0,0,0,0,0,0,0,0,0,0,0,0,0,0,0,0,0,0,0,0,0,0,0,0,0,0,0,0,0,0,0,0,0,0,0,0,0,0,0,0,-0.1587,-0.1587,0,-0.1639,-0.164,-0.164,-0.1666,-0.1667,-0.1667,-0.1667,-0.1709,-0.171,-0.1711,0,0,0,0,0,0,0,0,0,0,0,0,0,-0.1492,-0.1493,-0.1587,-0.1587,-0.1588,-0.1639,-0.164,-0.164,-0.1666,-0.1667,-0.1667,-0.1667,-0.1709,-0.171,-0.1711,0,0,0,0,0,0,0,0,0,0,0,0,0,-0.1536,-0.1494,-0.1586,-0.1609,-0.1611,-0.1639,-0.164,-0.1641,-0.1666,-0.1667,-0.1667,-0.1667,-0.1708,-0.171,-0.1711,-0.1716,0,0,-0.1716,-0.1716,0,0,0,0,0,0,0,0,-0.1533,-0.1539,-0.1605,-0.1607,-0.161,-0.1648,-0.1622,-0.1666,-0.1666,-0.1644,-0.1667,-0.1667,-0.1689,-0.1692,-0.1699,-0.1718,-0.172,-0.1716,-0.1717,-0.1717,-0.1718,0,0,0,0,0,0,0,-0.153,-0.1537,-0.1606,-0.1605,-0.1609,-0.161,-0.1617,-0.163,-0.1663,-0.1646,-0.1648,-0.1657,-0.169,-0.1697,-0.17,-0.172,-0.1716,-0.1717,-0.1718,-0.1719,-0.1805,-0.1806,0,0,0,0,0,0,-0.1528,-0.1534,-0.1604,-0.1608,-0.1573,-0.1612,-0.1619,-0.1634,-0.1663,-0.1668,-0.1656,-0.1658,-0.1695,-0.1698,-0.1702,-0.1768,-0.1717,-0.1719,-0.172,-0.1803,-0.1805,-0.1807,0,0,0,0,0,0,-0.1526,-0.1534,-0.1602,-0.1573,-0.1582,-0.1614,-0.163,-0.1635,-0.1671,-0.1671,-0.1676,-0.169,-0.1695,-0.17,-0.174,-0.1767,-0.1719,-0.1721,-0.1802,-0.1804,-0.1806,-0.1862,0,0,0,0,0,0,-0.1523,-0.1533,-0.1558,-0.1573,-0.1584,-0.1638,-0.163,-0.1636,-0.1675,-0.1678,-0.1702,-0.1704,-0.1696,-0.1738,-0.1741,-0.1769,-0.1722,-0.18,-0.1803,-0.1805,-0.1859,-0.1866,-0.1873,0,0,0,0,0,-0.1519,-0.1547,-0.1559,-0.1568,-0.1612,-0.1639,-0.1645,-0.1666,-0.1677,-0.1699,-0.1716,-0.1705,-0.1756,-0.174,-0.1744,-0.1772,-0.1799,-0.1802,-0.1805,-0.1856,-0.1865,-0.1872,0,0,0,0,0,0,-0.1522,-0.1553,-0.1566,-0.1604,-0.1629,-0.1645,-0.1673,-0.1685,-0.1718,-0.1729,-0.1726,-0.173,-0.1773,-0.1769,-0.1751,-0.1805,-0.1775,-0.1779,-0.1812,-0.182,-0.1827,-0.1822,-0.1723,0,0,0,0,0,-0.1534,-0.1564,-0.1589,-0.1623,-0.1639,-0.1663,-0.1683,-0.1698,-0.172,-0.1736,-0.1753,-0.177,-0.1784,-0.1801,-0.1811,-0.1847,-0.183,-0.1867,-0.1874,-0.188,-0.1879,-0.1877,-0.1884,-0.1817,-0.1817,-0.1817,0,0,-0.1544,-0.1567,-0.1585,-0.1626,-0.1649,-0.1676,-0.1676,-0.1717,-0.1744,-0.1735,-0.1788,-0.1798,-0.1799,-0.1835,-0.1854,-0.1839,-0.1892,-0.1884,-0.1889,-0.1884,-0.1881,-0.1888,-0.1893,-0.1819,-0.1819,-0.1818,0,0,-0.1566,-0.1603,-0.1629,-0.1654,-0.1696,-0.171,-0.1728,-0.1763,-0.1788,-0.1833,-0.1831,-0.186,-0.1891,-0.1895,-0.1898,-0.1952,-0.1927,-0.1962,-0.1996,-0.1995,-0.2,-0.2004,-0.1997,-0.2,-0.1967,-0.1967,-0.1967,0,-0.1579,-0.1612,-0.1642,-0.167,-0.1695,-0.1728,-0.1756,-0.1786,-0.1831,-0.1852,-0.1859,-0.1907,-0.1915,-0.1944,-0.1964,-0.1967,-0.196,-0.1963,-0.2003,-0.2007,-0.201,-0.2001,-0.2004,-0.197,-0.197,-0.1969,-0.1969,0,-0.1604,-0.1643,-0.1664,-0.1708,-0.1741,-0.1775,-0.1813,-0.1856,-0.1891,-0.1911,-0.1962,-0.1975,-0.1998,-0.2011,-0.2006,-0.2039,-0.2024,-0.2009,-0.1979,-0.202,-0.2009,-0.201,-0.1974,-0.1973,-0.1972,-0.1972,0,0,-0.1591,-0.1666,-0.1675,-0.1702,-0.1764,-0.1789,-0.1847,-0.1895,-0.1934,-0.198,-0.202,-0.2054,-0.2063,-0.2067,-0.2069,-0.2078,-0.2101,-0.2062,-0.206,-0.2049,-0.2099,-0.196,-0.1948,-0.2095,-0.2096,-0.2096,-0.2084,0,-0.16,-0.1653,-0.1692,-0.1749,-0.1777,-0.1831,-0.1879,-0.1932,-0.1977,-0.2027,-0.2051,-0.2088,-0.2083,-0.2101,-0.2111,-0.2105,-0.2108,-0.2106,-0.2066,-0.2064,-0.193,-0.1945,-0.2098,-0.2085,-0.2085,-0.2085,-0.2085,0,-0.1595,-0.1636,-0.169,-0.1766,-0.1786,-0.183,-0.191,-0.1956,-0.2028,-0.2064,-0.2105,-0.2124,-0.2155,-0.2141,-0.2147,-0.2148,-0.2129,-0.2118,-0.2117,-0.1964,-0.1926,-0.2034,-0.2088,-0.2088,-0.2087,-0.2087,-0.2087,0,-0.1545,-0.1628,-0.1673,-0.17,-0.1793,-0.1837,-0.1888,-0.1967,-0.2007,-0.2085,-0.2119,-0.2157,-0.2176,-0.217,-0.2153,-0.2156,-0.2143,-0.2139,-0.1994,-0.1984,-0.209,-0.2085,-0.2131,-0.2131,-0.2131,-0.2131,-0.2131,0,-0.1515,-0.1553,-0.1661,-0.1684,-0.1743,-0.1818,-0.1884,-0.1943,-0.2023,-0.2052,-0.2129,-0.2142,-0.2185,-0.2183,-0.2163,-0.2072,-0.2146,-0.1992,-0.1966,-0.2115,-0.2114,-0.2091,-0.2086,-0.213,-0.213,-0.213,-0.2131,0,-0.1441,-0.1513,-0.157,-0.1682,-0.1719,-0.1759,-0.1868,-0.1902,-0.1999,-0.2039,-0.2062,-0.2137,-0.2124,-0.2142,-0.2128,-0.206,-0.2004,-0.1952,-0.211,-0.2095,-0.1848,-0.1848,-0.1791,-0.1785,-0.1781,-0.1777,-0.1774,0,-0.1403,-0.1428,-0.1551,-0.158,-0.1634,-0.1711,-0.1751,-0.1868,-0.1895,-0.2004,-0.1997,-0.204,-0.2064,-0.1934,-0.1972,-0.1915,-0.189,-0.1856,-0.1852,-0.183,-0.1812,-0.1818,-0.1823,-0.1767,-0.1766,-0.1765,-0.1764,0,-0.1323,-0.1382,-0.1427,-0.1492,-0.1547,-0.1599,-0.1666,-0.168,-0.179,-0.1899,-0.1874,-0.1864,-0.1846,-0.1828,-0.1793,-0.1755,-0.1878,-0.1811,-0.182,-0.1816,-0.1801,-0.1789,-0.1799,-0.1749,-0.1751,-0.1752,-0.1753,0,-0.1256,-0.1271,-0.1336,-0.1379,-0.1442,-0.1456,-0.1517,-0.154,-0.1588,-0.1712,-0.1693,-0.1743,-0.1815,-0.1743,-0.171,-0.1661,-0.1639,-0.1588,-0.1609,-0.1626,-0.1576,-0.1534,-0.1367,0,0,0,0,0,-0.118,-0.1181,-0.1213,-0.1252,-0.1309,-0.1342,-0.1437,-0.1501,-0.1615,-0.1547,-0.1618,-0.1591,-0.1552,-0.1584,-0.1496,-0.1633,-0.1646,-0.1525,-0.16,-0.1665,-0.1682,-0.1638,0,0,0,0,0,0,-0.1121,-0.115,-0.1168,-0.1129,-0.1129,-0.1175,-0.1229,-0.1312,-0.1289,-0.141,-0.1394,-0.1483,-0.1467,-0.1564,-0.1457,-0.1465,-0.1477,-0.1565,-0.156,-0.1655,-0.1671,-0.1685,-0.1645,0,0,0,0,0]},{"header":{"parameterUnit":"m.s-1","parameterCategory":2,"la1":30.2991,"la2":30.254,"lo1":-89.0895,"lo2":-89.0444,"dy":0.0017,"dx":0.0017,"nx":28,"ny":28,"refTime":"2023-09-22T03:00:00:Z","depth":"4","parameterNumber":3,"parameterNumberName":"V-component_of_CURRENTS"},"data":[0,0,0,0,0,0,0,0,0,0,0,0,0,0,0,0,0,0,0,0,0,0,0,0,0,0,0,0,0,0,0,0,0,0,0,0,0,0,0,0,0,0,0,0,0,0,0,0,0,0,0,0,0,0,0,0,0,0,-0.0192,-0.0192,0,-0.0135,-0.0135,-0.0134,-0.0098,-0.0098,-0.0098,-0.0098,0.0009,0.0012,0.0014,0,0,0,0,0,0,0,0,0,0,0,0,0,-0.023,-0.0229,-0.0193,-0.0192,-0.0191,-0.0136,-0.0135,-0.0134,-0.0098,-0.0098,-0.0098,-0.0098,0.0008,0.0011,0.0014,0,0,0,0,0,0,0,0,0,0,0,0,0,-0.0197,-0.0229,-0.0193,-0.0167,-0.0164,-0.0136,-0.0135,-0.0134,-0.0098,-0.0098,-0.0098,-0.0098,0.0007,0.0011,0.0015,0.0035,0,0,0.0027,0.0029,0,0,0,0,0,0,0,0,-0.0199,-0.0195,-0.0171,-0.0169,-0.0166,-0.0124,-0.0109,-0.0075,-0.0098,-0.0123,-0.0098,-0.0097,-0.0031,-0.0024,-0.0014,0.004,0.0045,0.0028,0.003,0.0032,0.0033,0,0,0,0,0,0,0,-0.0201,-0.0197,-0.0169,-0.0171,-0.0167,-0.0144,-0.014,-0.0102,-0.0078,-0.0121,-0.0118,-0.0113,-0.0029,-0.0018,-0.0011,0.0046,0.0027,0.0031,0.0034,0.0035,0.0134,0.0134,0,0,0,0,0,0,-0.0212,-0.02,-0.0171,-0.0168,-0.0182,-0.0144,-0.0139,-0.0137,-0.0079,-0.0071,-0.0113,-0.0111,-0.0025,-0.0016,-0.0007,0.0025,0.0032,0.0036,0.0038,0.0134,0.0134,0.0134,0,0,0,0,0,0,-0.0213,-0.021,-0.0174,-0.0183,-0.0176,-0.0144,-0.0142,-0.0136,-0.0127,-0.0074,-0.0064,-0.011,-0.0025,-0.0013,0.0024,0.0029,0.0037,0.0041,0.0133,0.0134,0.0134,0.0086,0,0,0,0,0,0,-0.0214,-0.0211,-0.0216,-0.0184,-0.0176,-0.0162,-0.0142,-0.0135,-0.0124,-0.0121,-0.0068,-0.0058,-0.0023,0.0018,0.0028,0.0035,0.0044,0.0133,0.0133,0.0134,0.0087,0.0084,0.0082,0,0,0,0,0,-0.0216,-0.0224,-0.0217,-0.0214,-0.0184,-0.0163,-0.0157,-0.0133,-0.0125,-0.0123,-0.0086,-0.006,0.0027,0.0021,0.0033,0.0041,0.0133,0.0133,0.0134,0.0088,0.0085,0.0082,0,0,0,0,0,0,-0.0246,-0.0221,-0.0212,-0.0214,-0.0193,-0.0157,-0.0156,-0.0138,-0.0109,-0.0107,-0.0057,-0.0044,-0.0011,0.0021,0.0013,0.0071,0.0085,0.0088,0.0046,0.0043,0.0041,0.0028,0.0048,0,0,0,0,0,-0.0255,-0.0256,-0.0226,-0.023,-0.0221,-0.019,-0.018,-0.0163,-0.0132,-0.012,-0.0081,-0.0038,0.0001,0.0025,0.0062,0.0095,0.0126,0.0108,0.0106,0.0103,0.0102,0.0153,0.0155,0.0136,0.0136,0.0135,0,0,-0.027,-0.0256,-0.0258,-0.0237,-0.022,-0.0209,-0.0184,-0.0173,-0.0161,-0.0112,-0.0085,-0.0048,0.0006,0.0041,0.0059,0.0069,0.0124,0.0104,0.0101,0.0101,0.0154,0.0156,0.0157,0.0136,0.0136,0.0136,0,0,-0.0294,-0.0286,-0.0291,-0.0275,-0.0253,-0.0231,-0.0231,-0.0196,-0.0179,-0.0151,-0.0111,-0.0072,-0.0014,0.0028,0.0057,0.0064,0.0105,0.0075,0.0059,0.0108,0.011,0.0112,0.0145,0.0151,0.0079,0.0078,0.0078,0,-0.0313,-0.0313,-0.029,-0.0286,-0.0278,-0.0244,-0.0244,-0.0219,-0.0177,-0.016,-0.015,-0.0061,-0.0019,0.0035,0.0036,0.0058,0.0086,0.0064,0.0104,0.0107,0.011,0.0144,0.015,0.0076,0.0076,0.0077,0.0077,0,-0.0332,-0.0333,-0.0336,-0.032,-0.0308,-0.0305,-0.0268,-0.0252,-0.0229,-0.0198,-0.015,-0.0091,-0.0038,-0.0016,0.0013,0.0058,0.007,0.009,0.0109,0.0109,0.0144,0.0152,0.0073,0.0074,0.0074,0.0075,0,0,-0.0374,-0.0354,-0.0357,-0.0358,-0.0327,-0.0323,-0.0302,-0.0272,-0.0261,-0.0211,-0.0186,-0.0114,-0.0083,-0.0049,-0.0001,0.0046,0.0087,0.0072,0.0075,0.0097,0.0186,0.017,0.0178,0.0114,0.0116,0.0117,0.0198,0,-0.0398,-0.0406,-0.0384,-0.0394,-0.0395,-0.036,-0.0346,-0.0314,-0.0279,-0.0245,-0.0175,-0.0135,-0.0093,-0.0071,-0.0017,0.0063,0.0107,0.0063,0.0188,0.0192,0.0173,0.0186,0.0121,0.0204,0.0206,0.0207,0.0208,0,-0.042,-0.0425,-0.0438,-0.0433,-0.0432,-0.0431,-0.0409,-0.0392,-0.0331,-0.0302,-0.0243,-0.0189,-0.0109,-0.0081,0.0058,0.0028,0.0098,0.0159,0.0164,0.0173,0.0191,0.0208,0.0223,0.0221,0.022,0.0219,0.0218,0,-0.0461,-0.0464,-0.0481,-0.0478,-0.0462,-0.0466,-0.0459,-0.0414,-0.0402,-0.0339,-0.032,-0.0217,-0.0168,-0.006,0.0068,0.0064,0.0216,0.0229,0.0282,0.0282,0.0292,0.0289,0.0321,0.032,0.032,0.032,0.032,0,-0.0488,-0.0505,-0.0507,-0.0517,-0.0546,-0.0517,-0.053,-0.0505,-0.0464,-0.0447,-0.0359,-0.0317,-0.0161,-0.0054,0.0058,0.0194,0.0213,0.0281,0.0306,0.0268,0.0262,0.0297,0.0293,0.0323,0.0322,0.0322,0.0321,0,-0.0519,-0.0519,-0.0546,-0.0554,-0.0565,-0.0587,-0.0592,-0.0593,-0.0549,-0.0523,-0.0506,-0.0385,-0.0244,-0.0088,0.0095,0.0174,0.0309,0.0351,0.029,0.031,0.0342,0.0334,0.0414,0.0414,0.0414,0.0414,0.0414,0,-0.0531,-0.0548,-0.0588,-0.0616,-0.0625,-0.0653,-0.067,-0.0643,-0.0634,-0.056,-0.0545,-0.0416,-0.0319,-0.0068,0.0088,0.03,0.0327,0.0385,0.0371,0.0337,0.0353,0.0346,0.0339,0.0415,0.0415,0.0415,0.0415,0,-0.0559,-0.0577,-0.06,-0.0662,-0.0698,-0.0731,-0.0748,-0.0746,-0.07,-0.0668,-0.0559,-0.0423,-0.0267,-0.0071,0.0093,0.0244,0.0343,0.0387,0.0388,0.0375,0.0339,0.0354,0.0346,0.0416,0.0415,0.0415,0.0415,0,-0.0581,-0.061,-0.0648,-0.0697,-0.0751,-0.0782,-0.0788,-0.0758,-0.0739,-0.0644,-0.0611,-0.043,-0.032,-0.0101,0.0052,0.0199,0.023,0.0265,0.0273,0.0274,0.0207,0.0139,0.0178,0,0,0,0,0,-0.0595,-0.0627,-0.0679,-0.073,-0.0782,-0.0809,-0.0824,-0.0813,-0.0772,-0.07,-0.0647,-0.0494,-0.0253,-0.0147,-0.0002,0.0039,0.0239,0.0209,0.0279,0.0419,0.0418,0.0363,0,0,0,0,0,0,-0.0605,-0.0654,-0.0678,-0.0743,-0.0782,-0.0832,-0.0842,-0.0816,-0.0758,-0.0697,-0.0562,-0.0479,-0.0241,-0.0334,-0.0005,0.0039,0.0097,0.0329,0.0331,0.042,0.0419,0.0418,0.0361,0,0,0,0,0]}]]